Flag for United Kingdom Weather past 2 weeks in Luton, England, United Kingdom

Now
59 °F

Scattered showers. Scattered clouds.


Feels Like: 56 °F
Forecast: 46 / 64 °F
Wind: 15 mph from Northwest

Location: Luton Airport

Current Time: Aug 23, 2014 at 5:27:43 PM

Latest Report: Aug 23, 2014 at 4:50 PM


Visibility: N/A

Pressure: 29.98 "Hg

Humidity: 55%

Dew point: 43 °F

Location of LutonLocation

Historic Weather in Luton — Graph

°F

Luton temperature yesterday

Maximum temperature yesterday: 64 °F (at 2:20 PM)
Minimum temperature yesterday: 52 °F (at 3:20 AM)
Average temperature yesterday: 57 °F

Past Weeks' High & Low Weather Summary

 TemperatureHumidityPressure
High72 °F (Aug 8, 4:20 PM)100% (Aug 8, 11:20 PM)30.15 "Hg (Aug 8, 11:20 PM)
Low43 °F (Aug 21, 5:50 AM)34% (Aug 20, 2:20 PM)29.27 "Hg (Aug 10, 12:50 PM)
Average58 °F74%29.82 "Hg
* Reported Aug 8 4:20 PM — Aug 23 4:20 PM, Luton, Weather by CustomWeather, © 2014

Note: Actual official high and low records may vary slightly from our data, if they occured in-between our weather recording intervals... More about our weather records

Advertising

Luton weather history for previous 24 hours

 ConditionsComfort  
Time TempWeatherWind HumidityBarometerVisibility
4:20 PM
Aug 23
61 °FScattered showers. Scattered clouds.14 mph48%29.98 "HgN/A
3:50 PM63 °FScattered clouds.10 mph56%29.98 "HgN/A
3:20 PM63 °FScattered clouds.14 mph45%29.98 "HgN/A
2:50 PM63 °FScattered clouds.15 mph49%29.98 "HgN/A
2:20 PM61 °FScattered clouds.13 mph48%29.98 "HgN/A
1:50 PM61 °FPartly sunny.13 mph48%29.98 "HgN/A
1:20 PM61 °FPartly sunny.13 mph45%29.98 "HgN/A
12:50 PM63 °FScattered clouds.12 mph45%29.98 "HgN/A
12:20 PM61 °FPartly sunny.14 mph45%29.98 "HgN/A
11:50 AM61 °FPartly sunny.13 mph48%29.98 "HgN/A
11:20 AM61 °FScattered clouds.14 mph48%29.98 "HgN/A
10:50 AM61 °FScattered clouds.13 mph55%29.98 "HgN/A
10:20 AM59 °FScattered clouds.12 mph55%29.98 "HgN/A
9:50 AM55 °FScattered clouds.12 mph72%29.95 "HgN/A
9:20 AM55 °FPassing clouds.13 mph72%29.95 "HgN/A
8:50 AM54 °FSunny.10 mph77%29.95 "Hg10 mi
8:20 AM52 °FSunny.12 mph77%29.95 "Hg10 mi
7:50 AM50 °FSunny.10 mph82%29.95 "Hg10 mi
7:20 AM50 °FSunny.8 mph82%29.95 "Hg10 mi
6:50 AM48 °FClear.8 mph87%29.95 "Hg10 mi
6:20 AM46 °FClear.8 mph93%29.95 "Hg10 mi
5:50 AM46 °FClear.9 mph87%29.92 "Hg10 mi
5:20 AM46 °FClear.9 mph87%29.92 "Hg10 mi
4:50 AM46 °FClear.8 mph87%29.92 "Hg10 mi
4:20 AM48 °FClear.10 mph82%29.92 "Hg10 mi
3:50 AM50 °FClear.10 mph76%29.92 "Hg10 mi
3:20 AM50 °FClear.10 mph76%29.92 "Hg10 mi
2:50 AM50 °FClear.12 mph82%29.92 "Hg10 mi
2:20 AM50 °FClear.10 mph82%29.92 "Hg10 mi
1:50 AM50 °FClear.10 mph76%29.92 "Hg10 mi
1:20 AM52 °FClear.10 mph72%29.92 "Hg10 mi
12:50 AM52 °FClear.8 mph72%29.95 "Hg10 mi
12:20 AM54 °FClear.9 mph72%29.95 "Hg10 mi
11:50 PM
Aug 22
54 °FClear.9 mph72%29.92 "Hg10 mi
11:20 PM55 °FClear.9 mph67%29.92 "Hg10 mi
10:50 PM55 °FClear.10 mph63%29.92 "Hg10 mi
10:20 PM55 °FClear.9 mph63%29.92 "Hg10 mi
9:50 PM55 °FClear.10 mph63%29.92 "Hg10 mi
9:20 PM57 °FClear.10 mph59%29.92 "Hg10 mi
8:50 PM57 °FPassing clouds.7 mph63%29.92 "HgN/A
8:20 PM57 °FPassing clouds.7 mph63%29.89 "HgN/A
7:50 PM57 °FSunny.3 mph72%29.89 "Hg10 mi
7:20 PM57 °FPassing clouds.5 mph72%29.89 "HgN/A
6:50 PM59 °FPassing clouds.8 mph63%29.89 "HgN/A
6:20 PM61 °FPassing clouds.9 mph59%29.86 "HgN/A
5:50 PM61 °FScattered showers. Passing clouds.13 mph59%29.86 "HgN/A
5:20 PM61 °FScattered showers. Partly sunny.18 mph59%29.86 "HgN/A
Weather by CustomWeather, © 2014

See weather overviewHow to use our weather pages